• In Denmark
  • List of Countries
  • For 7 days
  • Water Temperature
  • Satellite Maps
  • Weather Map
  • Weather Widgets
  • user-avatar
    Login

    Hourly Weather Guldala

    Today, 21 August, Tuesday

    Time Temperature Precipitation Wind Pressure Humidity
    00:00 +26°C° 0 mm 3 mps 699 mmHg 52%
    01:00 +25°C° 0 mm 3 mps 700 mmHg 57%
    02:00 +24°C° 0 mm 3 mps 700 mmHg 62%
    03:00 +23°C° 0.2 mm 2 mps 700 mmHg 66%
    04:00 +23°C° 0.2 mm 2 mps 701 mmHg 71%
    05:00 +23°C° 0 mm 2 mps 701 mmHg 75%
    06:00 +23°C° 0.8 mm 2 mps 701 mmHg 77%
    07:00 +21°C° 0.8 mm 2 mps 701 mmHg 80%
    08:00 +22°C° 0.8 mm 1 mps 701 mmHg 82%
    09:00 +23°C° 0.2 mm 2 mps 702 mmHg 76%
    10:00 +25°C° 0.2 mm 2 mps 702 mmHg 70%
    11:00 +25°C° 0 mm 2 mps 703 mmHg 67%
    12:00 +25°C° 0.5 mm 2 mps 702 mmHg 65%
    13:00 +26°C° 0.5 mm 2 mps 702 mmHg 64%
    14:00 +26°C° 0.5 mm 2 mps 702 mmHg 62%
    15:00 +26°C° 0.5 mm 2 mps 702 mmHg 62%
    16:00 +26°C° 0.5 mm 2 mps 702 mmHg 61%
    17:00 +25°C° 0.5 mm 2 mps 702 mmHg 61%
    18:00 +25°C° 0.3 mm 2 mps 702 mmHg 63%
    19:00 +24°C° 0.3 mm 1 mps 702 mmHg 65%
    20:00 +23°C° 0.3 mm 1 mps 703 mmHg 67%
    21:00 +22°C° 0.2 mm 1 mps 703 mmHg 68%
    22:00 +22°C° 0.2 mm 1 mps 703 mmHg 70%
    23:00 +22°C° 0.2 mm 1 mps 703 mmHg 71%

    Tomorrow, 22 August, Wednesday

    Time Temperature Precipitation Wind Pressure Humidity
    00:00 +21°C° 0.1 mm 1 mps 703 mmHg 71%
    01:00 +21°C° 0.1 mm 1 mps 702 mmHg 71%
    02:00 +20°C° 0.1 mm 1 mps 702 mmHg 71%
    03:00 +20°C° 0 mm 1 mps 702 mmHg 71%
    04:00 +19°C° 0 mm 1 mps 702 mmHg 70%
    05:00 +19°C° 0 mm 1 mps 702 mmHg 70%
    06:00 +20°C° 0 mm 1 mps 702 mmHg 65%
    07:00 +22°C° 0 mm 1 mps 702 mmHg 60%
    08:00 +23°C° 0 mm 1 mps 703 mmHg 55%
    09:00 +24°C° 0.1 mm 2 mps 702 mmHg 53%
    10:00 +25°C° 0.1 mm 2 mps 702 mmHg 51%
    11:00 +26°C° 0.1 mm 2 mps 702 mmHg 49%
    12:00 +26°C° 0.2 mm 2 mps 702 mmHg 48%
    13:00 +27°C° 0.2 mm 2 mps 702 mmHg 48%
    14:00 +27°C° 0.2 mm 2 mps 702 mmHg 47%
    15:00 +27°C° 0.1 mm 2 mps 702 mmHg 47%
    16:00 +26°C° 0.1 mm 2 mps 702 mmHg 48%
    17:00 +26°C° 0.1 mm 2 mps 702 mmHg 48%
    18:00 +25°C° 0.1 mm 2 mps 702 mmHg 52%
    19:00 +23°C° 0.1 mm 2 mps 702 mmHg 55%
    20:00 +21°C° 0.1 mm 1 mps 702 mmHg 59%
    21:00 +21°C° 0 mm 1 mps 702 mmHg 59%
    22:00 +20°C° 0 mm 1 mps 702 mmHg 60%
    23:00 +20°C° 0 mm 1 mps 702 mmHg 60%

    Day after tomorrow, 23 August, Thursday

    Time Temperature Precipitation Wind Pressure Humidity
    00:00 +20°C° 0 mm 1 mps 702 mmHg 60%
    01:00 +20°C° 0 mm 1 mps 702 mmHg 60%
    02:00 +19°C° 0 mm 1 mps 701 mmHg 60%
    03:00 +19°C° 0 mm 1 mps 701 mmHg 61%
    04:00 +19°C° 0 mm 1 mps 701 mmHg 62%
    05:00 +18°C° 0 mm 1 mps 701 mmHg 62%
    06:00 +20°C° 0 mm 1 mps 701 mmHg 58%
    07:00 +22°C° 0 mm 1 mps 701 mmHg 53%
    08:00 +24°C° 0 mm 1 mps 701 mmHg 49%
    09:00 +25°C° 0.1 mm 2 mps 701 mmHg 47%
    10:00 +26°C° 0.1 mm 2 mps 701 mmHg 44%
    11:00 +27°C° 0.1 mm 2 mps 701 mmHg 42%
    12:00 +28°C° 0.1 mm 2 mps 701 mmHg 41%
    13:00 +28°C° 0.1 mm 2 mps 700 mmHg 41%
    14:00 +29°C° 0.1 mm 2 mps 700 mmHg 40%
    15:00 +29°C° 0.1 mm 2 mps 700 mmHg 40%
    16:00 +28°C° 0.1 mm 2 mps 700 mmHg 41%
    17:00 +28°C° 0.1 mm 2 mps 700 mmHg 42%
    18:00 +26°C° 0 mm 2 mps 700 mmHg 46%
    19:00 +24°C° 0 mm 2 mps 700 mmHg 50%
    20:00 +21°C° 0 mm 2 mps 700 mmHg 55%
    21:00 +21°C° 0 mm 2 mps 700 mmHg 55%
    22:00 +20°C° 0 mm 2 mps 700 mmHg 56%
    23:00 +20°C° 0 mm 2 mps 699 mmHg 57%

    24 August, Friday

    Time Temperature Precipitation Wind Pressure Humidity
    00:00 +20°C° 0 mm 2 mps 699 mmHg 57%
    01:00 +19°C° 0 mm 2 mps 699 mmHg 58%
    02:00 +19°C° 0 mm 2 mps 699 mmHg 58%
    03:00 +20°C° 0 mm 1 mps 698 mmHg 58%
    04:00 +20°C° 0 mm 1 mps 698 mmHg 59%
    05:00 +20°C° 0 mm 1 mps 698 mmHg 59%
    06:00 +21°C° 0 mm 2 mps 699 mmHg 55%
    07:00 +24°C° 0 mm 2 mps 699 mmHg 50%
    08:00 +26°C° 0 mm 2 mps 700 mmHg 46%
    09:00 +27°C° 0.2 mm 2 mps 699 mmHg 45%
    10:00 +28°C° 0.2 mm 2 mps 699 mmHg 43%
    11:00 +29°C° 0.2 mm 2 mps 699 mmHg 42%
    12:00 +29°C° 0.6 mm 2 mps 699 mmHg 42%
    13:00 +29°C° 0.6 mm 2 mps 698 mmHg 42%
    14:00 +30°C° 0.6 mm 1 mps 698 mmHg 42%
    15:00 +29°C° 0.7 mm 2 mps 698 mmHg 43%
    16:00 +29°C° 0.7 mm 3 mps 699 mmHg 44%
    17:00 +28°C° 0.7 mm 4 mps 699 mmHg 45%
    18:00 +27°C° 0.9 mm 4 mps 699 mmHg 46%
    19:00 +26°C° 0.9 mm 4 mps 700 mmHg 48%
    20:00 +25°C° 0.9 mm 4 mps 700 mmHg 49%
    21:00 +25°C° 0.8 mm 4 mps 700 mmHg 50%
    22:00 +24°C° 0.8 mm 3 mps 700 mmHg 51%
    23:00 +24°C° 0.8 mm 3 mps 700 mmHg 52%

    25 August, Saturday

    Time Temperature Precipitation Wind Pressure Humidity
    00:00 +22°C° 0.2 mm 3 mps 700 mmHg 52%
    01:00 +22°C° 0.2 mm 3 mps 700 mmHg 52%
    02:00 +21°C° 0.2 mm 3 mps 699 mmHg 52%
    03:00 +21°C° 0 mm 2 mps 699 mmHg 53%
    04:00 +20°C° 0 mm 2 mps 699 mmHg 54%
    05:00 +19°C° 0 mm 2 mps 699 mmHg 55%
    06:00 +21°C° 0 mm 2 mps 699 mmHg 52%
    07:00 +24°C° 0 mm 1 mps 700 mmHg 49%
    08:00 +26°C° 0 mm 1 mps 700 mmHg 46%
    09:00 +27°C° 0 mm 2 mps 699 mmHg 44%
    10:00 +28°C° 0 mm 2 mps 699 mmHg 43%
    11:00 +29°C° 0 mm 2 mps 699 mmHg 41%
    12:00 +29°C° 0 mm 2 mps 698 mmHg 41%
    13:00 +29°C° 0 mm 2 mps 698 mmHg 41%
    14:00 +30°C° 0 mm 2 mps 698 mmHg 41%
    15:00 +29°C° 0.1 mm 2 mps 697 mmHg 42%
    16:00 +29°C° 0.1 mm 2 mps 697 mmHg 43%
    17:00 +29°C° 0.1 mm 2 mps 697 mmHg 45%
    18:00 +27°C° 0.2 mm 2 mps 697 mmHg 48%
    19:00 +25°C° 0.2 mm 2 mps 697 mmHg 51%
    20:00 +23°C° 0.2 mm 2 mps 697 mmHg 54%
    21:00 +23°C° 0 mm 2 mps 697 mmHg 54%
    22:00 +21°C° 0 mm 2 mps 696 mmHg 53%
    23:00 +21°C° 0 mm 2 mps 696 mmHg 53%

    26 August, Sunday

    Time Temperature Precipitation Wind Pressure Humidity
    00:00 +20°C° 0 mm 2 mps 696 mmHg 52%
    01:00 +20°C° 0 mm 2 mps 696 mmHg 50%
    02:00 +20°C° 0 mm 2 mps 695 mmHg 49%
    03:00 +20°C° 0 mm 2 mps 695 mmHg 49%
    04:00 +19°C° 0 mm 2 mps 696 mmHg 48%
    05:00 +19°C° 0 mm 2 mps 696 mmHg 48%
    06:00 +21°C° 0 mm 2 mps 696 mmHg 48%
    07:00 +24°C° 0 mm 2 mps 696 mmHg 48%
    08:00 +25°C° 0 mm 2 mps 697 mmHg 48%
    09:00 +26°C° 0.1 mm 2 mps 697 mmHg 48%
    10:00 +26°C° 0.1 mm 2 mps 697 mmHg 48%
    11:00 +27°C° 0.1 mm 3 mps 697 mmHg 48%
    12:00 +27°C° 0.3 mm 3 mps 697 mmHg 48%
    13:00 +27°C° 0.3 mm 3 mps 697 mmHg 47%
    14:00 +27°C° 0.3 mm 3 mps 697 mmHg 46%
    15:00 +27°C° 0.5 mm 3 mps 697 mmHg 47%
    16:00 +26°C° 0.5 mm 2 mps 697 mmHg 47%
    17:00 +25°C° 0.5 mm 2 mps 698 mmHg 48%
    18:00 +24°C° 0.3 mm 2 mps 698 mmHg 51%
    19:00 +23°C° 0.3 mm 2 mps 699 mmHg 54%
    20:00 +20°C° 0.3 mm 2 mps 699 mmHg 57%
    21:00 +21°C° 0.1 mm 1 mps 699 mmHg 58%
    22:00 +20°C° 0.1 mm 1 mps 699 mmHg 58%
    23:00 +19°C° 0.1 mm 1 mps 699 mmHg 59%
    Show more